Location: Treviso
(45.6669°N, 12.2430°E)
Time: 00:37:38
(UTC+02:00)

ISS - Pass Details

Date: 22 May 2017
Orbit: 402 x 408 km, 51.6° (Epoch: 30 May)

Event Time Altitude Azimuth Distance (km) Brightness Sun altitude
Exits shadow 00:33:50 23° 50° (NE) 928 -1.7 -23.5°
Drops below altitude 10° 00:35:13 10° 57° (ENE) 1,469 -0.7 -23.6°
Sets 00:37:20 0° 62° (ENE) 2,330 0.3 -23.6°
